Flora, IL

9:47 PM CST on December 12, 2017 (GMT -0600)
Flora Municipal

Weather History for KFOA - January, 2014

Change the Weather History Date:

Tuesday, January 7, 2014

  Actual Average (KSLO) Record (KSLO)
Temperature  
Mean Temperature 2 °F -  
Max Temperature 16 °F 37 °F 68 °F (2008)
Min Temperature -13 °F 19 °F -11 °F (2014)
Degree Days  
Heating Degree Days 64    
Moisture  
Dew Point -5 °F    
Average Humidity 74    
Maximum Humidity 84    
Minimum Humidity 60    
Precipitation  
Precipitation 0.00 in - - ()
Sea Level Pressure  
Sea Level Pressure 30.40 in    
Wind  
Wind Speed 9 mph (South)    
Max Wind Speed 17 mph    
Max Gust Speed 23 mph    
Visibility 10 miles    
Events      
Averages and records for this station are not official NWS values.
T = Trace of Precipitation, MM = Missing Value Source: NWS Daily Summary

Daily Weather History Graph

Daily Weather History Graph

Search for Another Location

Airport or City:

Trip Planner

Search our weather history database for the weather conditions in past years. The results will help you decide how hot, cold, wet, or windy it might be!

Date:

Astronomy

Jan. 07, 2014 Rise Set
Actual Time 7:11 AM CST 4:48 PM CST
Civil Twilight 6:42 AM CST 5:18 PM CST
Nautical Twilight 6:09 AM CST 5:51 PM CST
Astronomical Twilight 5:37 AM CST 6:23 PM CST
Moon 11:05 AM CST (1/7) No Moon Set
Length of Visible Light 10h 35m
Length of Day
9h 36m
Waxing Crescent, 46% of the Moon is Illuminated
Jan 7
Waxing Crescent
Jan 7
First Quarter
Jan 15
Full
Jan 23
Last Quarter
Jan 30
New

Hourly Weather History & Observations

Time (CST) Temp. Windchill Dew Point Humidity Pressure Visibility Wind Dir Wind Speed Gust Speed Precip Events Conditions
12:15 AM -12.3 °F -29.1 °F -18.4 °F 74% 30.48 in 10.0 mi SW 8.1 mph - N/A   Clear
12:35 AM -13.0 °F -30.0 °F -19.1 °F 74% 30.49 in 10.0 mi SW 8.1 mph - N/A   Clear
12:55 AM -13.0 °F -30.0 °F -19.3 °F 73% 30.48 in 10.0 mi SW 8.1 mph - N/A   Clear
1:15 AM -13.4 °F -30.4 °F -18.9 °F 76% 30.47 in 10.0 mi SW 8.1 mph - N/A   Clear
1:35 AM -13.5 °F -31.9 °F -19.3 °F 75% 30.48 in 10.0 mi SW 9.2 mph - N/A   Clear
1:55 AM -11.9 °F -28.7 °F -17.9 °F 75% 30.48 in 10.0 mi SW 8.1 mph - N/A   Clear
2:15 AM -12.5 °F -28.0 °F -18.4 °F 75% 30.48 in 10.0 mi SW 6.9 mph - N/A   Clear
2:35 AM -12.8 °F -29.8 °F -18.4 °F 76% 30.49 in 10.0 mi SW 8.1 mph - N/A   Clear
2:55 AM -13.4 °F -30.4 °F -19.3 °F 75% 30.48 in 10.0 mi SW 8.1 mph - N/A   Clear
3:15 AM -10.3 °F -27.9 °F -16.1 °F 76% 30.49 in 10.0 mi SW 9.2 mph - N/A   Clear
3:35 AM -11.2 °F -27.8 °F -17.5 °F 74% 30.48 in 10.0 mi SW 8.1 mph - N/A   Clear
3:55 AM -11.9 °F -27.3 °F -17.5 °F 76% 30.47 in 10.0 mi SW 6.9 mph - N/A   Clear
4:15 AM -12.6 °F -29.6 °F -18.4 °F 75% 30.47 in 10.0 mi SSW 8.1 mph - N/A   Clear
4:35 AM -11.4 °F -28.0 °F -16.8 °F 77% 30.48 in 10.0 mi SW 8.1 mph - N/A   Clear
4:55 AM -11.4 °F -28.0 °F -17.1 °F 76% 30.47 in 10.0 mi SW 8.1 mph - N/A   Clear
5:15 AM -9.6 °F -25.8 °F -15.0 °F 77% 30.49 in 10.0 mi SW 8.1 mph - N/A   Clear
5:35 AM -9.8 °F -26.1 °F -15.5 °F 76% 30.47 in 10.0 mi SW 8.1 mph - N/A   Clear
5:55 AM -11.0 °F -28.8 °F -16.6 °F 76% 30.47 in 10.0 mi SSW 9.2 mph - N/A   Clear
6:15 AM -10.3 °F -25.4 °F -15.9 °F 76% 30.47 in 10.0 mi SSW 6.9 mph - N/A   Clear
6:35 AM -10.8 °F -27.4 °F -16.6 °F 76% 30.48 in 10.0 mi SSW 8.1 mph - N/A   Clear
6:55 AM -11.0 °F -26.2 °F -16.6 °F 76% 30.47 in 10.0 mi SSW 6.9 mph - N/A   Clear
7:15 AM -10.5 °F -26.9 °F -15.9 °F 77% 30.48 in 10.0 mi SSW 8.1 mph - N/A   Clear
7:35 AM -10.5 °F -24.0 °F -15.9 °F 77% 30.48 in 10.0 mi SSW 5.8 mph - N/A   Clear
7:55 AM -10.3 °F -23.8 °F -15.7 °F 77% 30.47 in 10.0 mi South 5.8 mph - N/A   Clear
8:15 AM -6.3 °F -21.9 °F -12.1 °F 76% 30.48 in 10.0 mi South 8.1 mph - N/A   Clear
8:35 AM -4.2 °F -19.3 °F -10.3 °F 75% 30.48 in 10.0 mi SSW 8.1 mph - N/A   Clear
8:55 AM -2.2 °F -18.0 °F -8.5 °F 75% 30.48 in 10.0 mi SSW 9.2 mph - N/A   Unknown
9:15 AM -0.4 °F -16.7 °F -7.2 °F 73% 30.49 in 10.0 mi SSW 10.4 mph - N/A   Unknown
9:35 AM 1.6 °F -12.2 °F -6.0 °F 71% 30.49 in 10.0 mi SSW 8.1 mph - N/A   Unknown
9:55 AM 3.2 °F -12.2 °F -4.5 °F 70% 30.49 in 10.0 mi South 10.4 mph - N/A   Unknown
10:15 AM 4.3 °F -7.8 °F -4.2 °F 68% 30.50 in 10.0 mi South 6.9 mph - N/A   Unknown
10:35 AM 5.5 °F -9.3 °F -3.1 °F 68% 30.48 in 10.0 mi South 10.4 mph - N/A   Unknown
10:55 AM 6.6 °F -8.0 °F -2.2 °F 67% 30.47 in 10.0 mi South 10.4 mph - N/A   Unknown
11:15 AM 7.3 °F -6.2 °F -1.5 °F 67% 30.45 in 10.0 mi South 9.2 mph - N/A   Unknown
11:35 AM 8.8 °F -7.5 °F -0.9 °F 65% 30.43 in 10.0 mi South 13.8 mph - N/A   Unknown
11:55 AM 9.3 °F -6.8 °F -0.4 °F 65% 30.43 in 10.0 mi SSW 13.8 mph - N/A   Unknown
12:15 PM 10.0 °F -6.5 °F -0.0 °F 64% 30.42 in 10.0 mi South 15.0 mph - N/A   Unknown
12:35 PM 10.4 °F -6.6 °F -0.0 °F 63% 30.40 in 10.0 mi SSW 16.1 mph - N/A   Unknown
12:55 PM 11.1 °F -1.6 °F 0.3 °F 62% 30.37 in 10.0 mi South 9.2 mph - N/A   Unknown
1:15 PM 11.5 °F -4.1 °F 1.4 °F 64% 30.37 in 10.0 mi South 13.8 mph - N/A   Unknown
1:35 PM 12.2 °F -3.1 °F 0.7 °F 60% 30.36 in 10.0 mi South 13.8 mph - N/A   Unknown
1:55 PM 12.9 °F -1.6 °F 2.1 °F 62% 30.35 in 10.0 mi South 12.7 mph - N/A   Unknown
2:15 PM 13.1 °F -2.0 °F 2.8 °F 64% 30.34 in 10.0 mi SSE 13.8 mph - N/A   Unknown
2:35 PM 13.8 °F -2.7 °F 3.7 °F 64% 30.33 in 10.0 mi SSE 17.3 mph - N/A   Scattered Clouds
2:55 PM 14.2 °F -1.2 °F 4.5 °F 65% 30.32 in 10.0 mi South 15.0 mph - N/A   Scattered Clouds
3:15 PM 14.9 °F -1.3 °F 4.6 °F 64% 30.32 in 10.0 mi SSE 17.3 mph 23.0 mph N/A   Scattered Clouds
3:35 PM 15.1 °F 1.8 °F 5.7 °F 66% 30.32 in 10.0 mi South 11.5 mph - N/A   Scattered Clouds
3:55 PM 16.3 °F 2.7 °F 5.9 °F 64% 30.31 in 10.0 mi SSE 12.7 mph - N/A   Scattered Clouds
4:15 PM 15.6 °F 1.8 °F 5.9 °F 66% 30.30 in 10.0 mi SSE 12.7 mph - N/A   Clear
4:35 PM 14.5 °F 1.1 °F 5.9 °F 69% 30.29 in 10.0 mi SSE 11.5 mph - N/A   Clear
4:55 PM 14.9 °F 3.1 °F 5.9 °F 68% 30.30 in 10.0 mi SSE 9.2 mph - N/A   Clear
5:15 PM 12.2 °F 2.9 °F 5.0 °F 73% 30.31 in 10.0 mi SSE 5.8 mph - N/A   Clear
5:35 PM 10.8 °F 0.0 °F 4.1 °F 75% 30.31 in 10.0 mi SSE 6.9 mph - N/A   Clear
5:55 PM 9.5 °F -1.5 °F 3.7 °F 77% 30.31 in 10.0 mi SSE 6.9 mph - N/A   Clear
6:15 PM 9.0 °F -2.2 °F 3.2 °F 77% 30.31 in 10.0 mi SSE 6.9 mph - N/A   Clear
6:35 PM 8.8 °F 0.4 °F 3.2 °F 78% 30.32 in 10.0 mi SE 4.6 mph - N/A   Clear
6:55 PM 7.3 °F -2.8 °F 2.5 °F 81% 30.32 in 10.0 mi SE 5.8 mph - N/A   Clear
7:15 PM 5.9 °F -4.5 °F 2.1 °F 84% 30.32 in 10.0 mi SE 5.8 mph - N/A   Clear
7:35 PM 4.3 °F -7.8 °F 0.1 °F 83% 30.32 in 10.0 mi SE 6.9 mph - N/A   Clear
7:55 PM 5.9 °F -5.8 °F 1.9 °F 84% 30.32 in 10.0 mi SE 6.9 mph - N/A   Clear
8:15 PM 6.8 °F -4.8 °F 2.8 °F 84% 30.32 in 10.0 mi SSE 6.9 mph - N/A   Clear
8:35 PM 5.2 °F -7.9 °F 1.2 °F 84% 30.32 in 10.0 mi SE 8.1 mph - N/A   Clear
8:55 PM 6.3 °F -6.5 °F 2.5 °F 84% 30.32 in 10.0 mi SSE 8.1 mph - N/A   Clear
9:15 PM 5.9 °F -7.0 °F 2.1 °F 84% 30.32 in 10.0 mi SSE 8.1 mph - N/A   Clear
9:35 PM 7.3 °F -6.2 °F 3.4 °F 84% 30.31 in 10.0 mi SSE 9.2 mph - N/A   Clear
9:55 PM 8.4 °F -3.9 °F 3.9 °F 82% 30.31 in 10.0 mi SSE 8.1 mph - N/A   Clear
10:15 PM 7.2 °F -5.4 °F 2.8 °F 82% 30.31 in 10.0 mi SSE 8.1 mph - N/A   Clear
10:35 PM 9.3 °F -3.8 °F 4.6 °F 81% 30.30 in 10.0 mi SSE 9.2 mph - N/A   Clear
10:55 PM 9.3 °F -2.8 °F 4.6 °F 81% 30.30 in 10.0 mi South 8.1 mph - N/A   Clear
11:15 PM 9.5 °F -2.6 °F 4.8 °F 81% 30.30 in 10.0 mi SSE 8.1 mph - N/A   Clear
11:35 PM 10.2 °F -1.7 °F 5.7 °F 82% 30.30 in 10.0 mi SSE 8.1 mph - N/A   Clear
11:55 PM 13.5 °F 1.3 °F 7.7 °F 78% 30.30 in 10.0 mi South 9.2 mph - N/A   Clear